Flag for Austria Weather past 2 weeks in Kirchdorf an der Krems, Upper Austria, Austria

Now
67 °F

Sprinkles. Cloudy.


Feels Like: 67 °F
Forecast: 55 / 74 °F
Wind: 3 mph from Northwest

Location: Kremsmuenster

Current Time: Jul 22, 2014 at 8:21:17 PM

Latest Report: Jul 22, 2014 at 6:00 PM


Visibility: N/A

Pressure: 29.88 "Hg

Humidity: 89%

Dew point: 63 °F

Location of Kirchdorf an der KremsLocation

Historic Weather in Kirchdorf an der Krems — Graph

°F

Kirchdorf an der Krems temperature yesterday

Maximum temperature yesterday: 74 °F (at 12:00 PM)
Minimum temperature yesterday: 62 °F (at 11:00 PM)
Average temperature yesterday: 68 °F

Past Weeks' High & Low Weather Summary

 TemperatureHumidityPressure
High93 °F (Jul 20, 4:00 PM)93% (Jul 22, 12:00 AM)30.16 "Hg (Jul 22, 12:00 AM)
Low52 °F (Jul 10, 3:00 AM)33% (Jul 20, 4:00 PM)29.64 "Hg (Jul 8, 4:00 PM)
Average68 °F71%29.92 "Hg
* Reported Jul 7 8:00 PM — Jul 22 6:00 PM, Kirchdorf an der Krems, Weather by CustomWeather, © 2014

Note: Actual official high and low records may vary slightly from our data, if they occured in-between our weather recording intervals... More about our weather records

Advertising

Kirchdorf an der Krems weather history for previous 24 hours

 ConditionsComfort  
Time TempWeatherWind HumidityBarometerVisibility
6:00 PM
Jul 22
67 °FSprinkles. Cloudy.3 mph89%29.88 "HgN/A
5:00 PM68 °FOvercast.3 mph83%29.86 "Hg11 mi
4:00 PM67 °FMild.3 mph86%29.88 "HgN/A
3:00 PM66 °FMild.2 mph87%29.88 "HgN/A
2:00 PM65 °FMild.3 mph90%29.88 "HgN/A
1:00 PM66 °FMild.3 mph87%29.88 "HgN/A
12:00 PM65 °FMild.5 mph86%29.86 "HgN/A
11:00 AM65 °FLight rain. Overcast.5 mph86%29.85 "Hg12 mi
10:00 AM64 °FMild.5 mph90%29.86 "HgN/A
9:00 AM63 °FMild.3 mph91%29.85 "HgN/A
8:00 AM63 °FLight rain. Overcast.3 mph92%29.84 "Hg12 mi
7:00 AM62 °FDrizzle. Low clouds.2 mph91%29.83 "Hg16 mi
6:00 AM63 °FMild.3 mph90%29.83 "HgN/A
5:00 AM62 °FCool.5 mph91%29.83 "HgN/A
3:00 AM62 °FCool.7 mph92%29.83 "HgN/A
2:00 AM62 °FCool.5 mph92%29.83 "HgN/A
1:00 AM62 °FFog.5 mph93%29.84 "HgN/A
12:00 AM62 °FFog.6 mph93%29.84 "HgN/A
11:00 PM
Jul 21
62 °FCool.8 mph92%29.84 "HgN/A
10:00 PM62 °FSprinkles. Overcast.9 mph90%29.84 "HgN/A
9:00 PM63 °FFog.8 mph90%29.83 "HgN/A
8:00 PM63 °FRain. Low clouds.8 mph90%29.82 "Hg3 mi
Weather by CustomWeather, © 2014

See weather overviewHow to use our weather pages